When you browse on this site, cookies collect data to enhance your experience and personalize the content and advertising you see.
Visit our Privacy Policy to learn more. By continuing to use the site, you agree to this use of cookies and data.
  • In Lithuania
  • List of Countries
  • For 7 days
  • Water Temperature
  • Satellite Maps
  • Weather Map
  • Weather Widgets
  • user-avatar
    Login

    Hourly Weather Eisenstadt

    Today, 19 May, Sunday

    Time Temperature Precipitation Wind Pressure Humidity
    00:00 +11°C° 0 mm 1 mps 716 mmHg 88%
    01:00 +10°C° 0 mm 2 mps 715 mmHg 89%
    02:00 +11°C° 0 mm 1 mps 715 mmHg 89%
    03:00 +10°C° 0 mm 1 mps 715 mmHg 89%
    04:00 +10°C° 0 mm 1 mps 715 mmHg 89%
    05:00 +12°C° 0 mm 1 mps 715 mmHg 84%
    06:00 +13°C° 0 mm 2 mps 715 mmHg 80%
    07:00 +15°C° 0 mm 1 mps 715 mmHg 73%
    08:00 +16°C° 0 mm 1 mps 715 mmHg 69%
    09:00 +17°C° 0 mm 2 mps 715 mmHg 65%
    10:00 +19°C° 0 mm 2 mps 714 mmHg 60%
    11:00 +19°C° 0.1 mm 3 mps 714 mmHg 59%
    12:00 +20°C° 0.1 mm 3 mps 714 mmHg 58%
    13:00 +21°C° 0.1 mm 4 mps 714 mmHg 57%
    14:00 +20°C° 0 mm 4 mps 714 mmHg 57%
    15:00 +20°C° 0 mm 4 mps 713 mmHg 58%
    16:00 +20°C° 0 mm 4 mps 713 mmHg 58%
    17:00 +18°C° 0.1 mm 3 mps 713 mmHg 66%
    18:00 +17°C° 0.1 mm 3 mps 713 mmHg 74%
    19:00 +15°C° 0.1 mm 2 mps 712 mmHg 82%
    20:00 +15°C° 0.1 mm 2 mps 712 mmHg 86%
    21:00 +14°C° 0.1 mm 1 mps 712 mmHg 89%
    22:00 +13°C° 0.1 mm 1 mps 712 mmHg 93%
    23:00 +13°C° 0 mm 1 mps 712 mmHg 94%

    Tomorrow, 20 May, Monday

    Time Temperature Precipitation Wind Pressure Humidity
    00:00 +12°C° 0 mm 1 mps 712 mmHg 94%
    01:00 +12°C° 0 mm 1 mps 712 mmHg 95%
    02:00 +12°C° 0 mm 1 mps 712 mmHg 96%
    03:00 +12°C° 0 mm 1 mps 712 mmHg 96%
    04:00 +11°C° 0 mm 1 mps 712 mmHg 96%
    05:00 +12°C° 0.9 mm 2 mps 712 mmHg 96%
    06:00 +12°C° 0.9 mm 2 mps 712 mmHg 96%
    07:00 +12°C° 0.9 mm 2 mps 712 mmHg 96%
    08:00 +13°C° 0.9 mm 2 mps 712 mmHg 94%
    09:00 +13°C° 0.9 mm 3 mps 712 mmHg 91%
    10:00 +13°C° 0.9 mm 4 mps 713 mmHg 89%
    11:00 +14°C° 0.3 mm 4 mps 713 mmHg 84%
    12:00 +15°C° 0.3 mm 5 mps 713 mmHg 80%
    13:00 +16°C° 0.3 mm 6 mps 713 mmHg 76%
    14:00 +16°C° 0.1 mm 6 mps 713 mmHg 72%
    15:00 +17°C° 0.1 mm 6 mps 713 mmHg 68%
    16:00 +17°C° 0.1 mm 6 mps 713 mmHg 64%
    17:00 +16°C° 0 mm 6 mps 713 mmHg 68%
    18:00 +14°C° 0 mm 6 mps 713 mmHg 71%
    19:00 +13°C° 0 mm 6 mps 713 mmHg 75%
    20:00 +12°C° 0 mm 5 mps 713 mmHg 77%
    21:00 +10°C° 0 mm 5 mps 713 mmHg 79%
    22:00 +10°C° 0 mm 4 mps 713 mmHg 81%
    23:00 +10°C° 0 mm 4 mps 713 mmHg 83%

    Day after tomorrow, 21 May, Tuesday

    Time Temperature Precipitation Wind Pressure Humidity
    00:00 +8°C° 0 mm 4 mps 713 mmHg 85%
    01:00 +9°C° 0 mm 3 mps 713 mmHg 87%
    02:00 +9°C° 0 mm 3 mps 713 mmHg 88%
    03:00 +8°C° 0 mm 2 mps 714 mmHg 90%
    04:00 +8°C° 0 mm 2 mps 714 mmHg 92%
    05:00 +9°C° 0 mm 2 mps 714 mmHg 86%
    06:00 +12°C° 0 mm 2 mps 714 mmHg 81%
    07:00 +13°C° 0 mm 2 mps 715 mmHg 76%
    08:00 +14°C° 0.1 mm 2 mps 715 mmHg 77%
    09:00 +14°C° 0.1 mm 1 mps 715 mmHg 77%
    10:00 +15°C° 0.1 mm 1 mps 716 mmHg 78%
    11:00 +14°C° 0.6 mm 1 mps 716 mmHg 81%
    12:00 +14°C° 0.6 mm 1 mps 716 mmHg 84%
    13:00 +14°C° 0.6 mm 1 mps 716 mmHg 87%
    14:00 +14°C° 0.1 mm 1 mps 716 mmHg 84%
    15:00 +15°C° 0.1 mm 1 mps 716 mmHg 81%
    16:00 +15°C° 0.1 mm 2 mps 716 mmHg 78%
    17:00 +15°C° 0.1 mm 2 mps 716 mmHg 82%
    18:00 +14°C° 0.1 mm 2 mps 717 mmHg 86%
    19:00 +13°C° 0.1 mm 1 mps 717 mmHg 90%
    20:00 +13°C° 0.4 mm 1 mps 717 mmHg 91%
    21:00 +12°C° 0.4 mm 1 mps 718 mmHg 92%
    22:00 +12°C° 0.4 mm 1 mps 718 mmHg 94%
    23:00 +12°C° 1 mm 1 mps 718 mmHg 94%

    22 May, Wednesday

    Time Temperature Precipitation Wind Pressure Humidity
    00:00 +12°C° 1 mm 1 mps 718 mmHg 94%
    01:00 +12°C° 1 mm 1 mps 718 mmHg 95%
    02:00 +11°C° 0 mm 1 mps 718 mmHg 94%
    03:00 +11°C° 0 mm 1 mps 718 mmHg 93%
    04:00 +11°C° 0 mm 1 mps 718 mmHg 93%
    05:00 +12°C° 0 mm 1 mps 718 mmHg 91%
    06:00 +13°C° 0 mm 1 mps 719 mmHg 88%
    07:00 +14°C° 0 mm 1 mps 719 mmHg 86%
    08:00 +14°C° 0.3 mm 1 mps 719 mmHg 84%
    09:00 +15°C° 0.3 mm 2 mps 719 mmHg 83%
    10:00 +16°C° 0.3 mm 2 mps 720 mmHg 81%
    11:00 +17°C° 0.2 mm 2 mps 720 mmHg 74%
    12:00 +18°C° 0.2 mm 3 mps 720 mmHg 67%
    13:00 +20°C° 0.2 mm 3 mps 720 mmHg 60%
    14:00 +20°C° 0.3 mm 4 mps 720 mmHg 59%
    15:00 +20°C° 0.3 mm 4 mps 720 mmHg 58%
    16:00 +20°C° 0.3 mm 5 mps 720 mmHg 56%
    17:00 +18°C° 0.1 mm 4 mps 720 mmHg 63%
    18:00 +16°C° 0.1 mm 3 mps 721 mmHg 69%
    19:00 +14°C° 0.1 mm 3 mps 721 mmHg 75%
    20:00 +13°C° 0 mm 3 mps 721 mmHg 77%
    21:00 +13°C° 0 mm 2 mps 721 mmHg 79%
    22:00 +13°C° 0 mm 2 mps 722 mmHg 80%
    23:00 +12°C° 0 mm 2 mps 722 mmHg 81%

    23 May, Thursday

    Time Temperature Precipitation Wind Pressure Humidity
    00:00 +12°C° 0 mm 2 mps 722 mmHg 82%
    01:00 +12°C° 0 mm 2 mps 722 mmHg 83%
    02:00 +12°C° 0 mm 2 mps 722 mmHg 83%
    03:00 +12°C° 0 mm 2 mps 722 mmHg 82%
    04:00 +12°C° 0 mm 2 mps 721 mmHg 81%
    05:00 +12°C° 0.1 mm 2 mps 722 mmHg 81%
    06:00 +13°C° 0.1 mm 2 mps 722 mmHg 81%
    07:00 +13°C° 0.1 mm 2 mps 722 mmHg 81%
    08:00 +13°C° 0.2 mm 3 mps 722 mmHg 78%
    09:00 +13°C° 0.2 mm 3 mps 722 mmHg 75%
    10:00 +13°C° 0.2 mm 3 mps 722 mmHg 71%
    11:00 +15°C° 0 mm 4 mps 722 mmHg 60%
    12:00 +16°C° 0 mm 5 mps 722 mmHg 50%
    13:00 +17°C° 0 mm 6 mps 723 mmHg 39%
    14:00 +17°C° 0 mm 6 mps 722 mmHg 40%
    15:00 +17°C° 0 mm 6 mps 722 mmHg 41%
    16:00 +17°C° 0 mm 6 mps 722 mmHg 41%
    17:00 +15°C° 0 mm 6 mps 722 mmHg 48%
    18:00 +13°C° 0 mm 5 mps 722 mmHg 54%
    19:00 +11°C° 0 mm 4 mps 722 mmHg 61%
    20:00 +11°C° 0 mm 4 mps 722 mmHg 62%
    21:00 +10°C° 0 mm 3 mps 722 mmHg 63%
    22:00 +10°C° 0 mm 2 mps 723 mmHg 64%
    23:00 +10°C° 0 mm 2 mps 723 mmHg 66%

    24 May, Friday

    Time Temperature Precipitation Wind Pressure Humidity
    00:00 +9°C° 0 mm 2 mps 722 mmHg 68%
    01:00 +9°C° 0 mm 2 mps 722 mmHg 70%
    02:00 +8°C° 0 mm 2 mps 722 mmHg 72%
    03:00 +8°C° 0 mm 2 mps 722 mmHg 73%
    04:00 +8°C° 0 mm 2 mps 722 mmHg 74%
    05:00 +9°C° 0 mm 2 mps 721 mmHg 69%
    06:00 +11°C° 0 mm 3 mps 721 mmHg 64%
    07:00 +13°C° 0 mm 3 mps 721 mmHg 59%
    08:00 +14°C° 0 mm 3 mps 721 mmHg 55%
    09:00 +17°C° 0 mm 3 mps 721 mmHg 50%
    10:00 +18°C° 0 mm 3 mps 721 mmHg 46%
    11:00 +19°C° 0 mm 3 mps 720 mmHg 45%
    12:00 +20°C° 0 mm 3 mps 720 mmHg 43%
    13:00 +21°C° 0 mm 3 mps 719 mmHg 42%
    14:00 +21°C° 0 mm 2 mps 719 mmHg 44%
    15:00 +20°C° 0 mm 2 mps 718 mmHg 46%
    16:00 +20°C° 0 mm 2 mps 717 mmHg 48%
    17:00 +19°C° 0 mm 2 mps 717 mmHg 55%
    18:00 +18°C° 0 mm 1 mps 717 mmHg 63%
    19:00 +15°C° 0 mm 1 mps 716 mmHg 71%
    20:00 +14°C° 0 mm 1 mps 716 mmHg 73%
    21:00 +13°C° 0 mm 1 mps 716 mmHg 75%
    22:00 +12°C° 0 mm 1 mps 716 mmHg 77%
    23:00 +12°C° 0 mm 1 mps 716 mmHg 77%
    Show more